[[{"header":{"parameterUnit":"m.s-1","parameterCategory":1,"la1":30.2991,"la2":30.254,"lo1":-89.0895,"lo2":-89.0444,"dy":0.0017,"dx":0.0017,"nx":28,"ny":28,"refTime":"2025-03-31T03:00:00:Z","depth":0,"parameterNumber":2,"parameterNumberName":"U-component_of_WINDS"},"data":[0,0,0,0,0,0,0,0,0,0,0,0,0,0,0,0,0,0,0,0,0,0,0,0,0,0,0,0,0,0,0,0,0,0,0,0,0,0,0,0,0,0,0,0,0,0,0,0,0,0,0,0,0,0,0,0,0,0,-0.792,-0.7919,0,-0.7845,-0.7844,-0.7844,-0.7814,-0.7814,-0.7814,-0.7815,-0.7737,-0.7735,-0.7733,0,0,0,0,0,0,0,0,0,0,0,0,0,-0.8037,-0.8035,-0.792,-0.7919,-0.7918,-0.7845,-0.7844,-0.7843,-0.7814,-0.7814,-0.7815,-0.7815,-0.7738,-0.7736,-0.7733,0,0,0,0,0,0,0,0,0,0,0,0,0,-0.7977,-0.8034,-0.792,-0.7895,-0.7892,-0.7846,-0.7844,-0.7843,-0.7814,-0.7814,-0.7815,-0.7815,-0.7739,-0.7736,-0.7732,-0.7706,0,0,-0.7722,-0.7721,0,0,0,0,0,0,0,0,-0.798,-0.7972,-0.79,-0.7897,-0.7893,-0.7839,-0.7857,-0.7797,-0.7814,-0.7844,-0.7815,-0.7815,-0.7771,-0.7765,-0.775,-0.7702,-0.7699,-0.7722,-0.772,-0.7718,-0.7717,0,0,0,0,0,0,0,-0.7984,-0.7975,-0.7891,-0.7899,-0.7895,-0.7887,-0.7879,-0.7846,-0.7807,-0.7841,-0.7839,-0.783,-0.7769,-0.7754,-0.7748,-0.7698,-0.7722,-0.7719,-0.7717,-0.7716,-0.7623,-0.7622,0,0,0,0,0,0,-0.7993,-0.7979,-0.7893,-0.7888,-0.7938,-0.7885,-0.7875,-0.7856,-0.7807,-0.78,-0.783,-0.7829,-0.7759,-0.7752,-0.7746,-0.771,-0.7718,-0.7715,-0.7713,-0.7623,-0.7623,-0.7622,0,0,0,0,0,0,-0.7995,-0.7985,-0.7896,-0.7933,-0.7921,-0.7882,-0.7861,-0.7855,-0.7839,-0.7799,-0.7791,-0.7821,-0.7759,-0.775,-0.7716,-0.7707,-0.7714,-0.7711,-0.7624,-0.7623,-0.7622,-0.764,0,0,0,0,0,0,-0.7999,-0.7986,-0.7976,-0.7933,-0.7919,-0.7868,-0.7861,-0.7853,-0.7833,-0.7831,-0.7788,-0.7782,-0.7759,-0.7721,-0.7712,-0.7702,-0.7708,-0.7624,-0.7623,-0.7623,-0.764,-0.764,-0.764,0,0,0,0,0,-0.8003,-0.7984,-0.7976,-0.7966,-0.7906,-0.7867,-0.7859,-0.7834,-0.7833,-0.7822,-0.7796,-0.7783,-0.771,-0.7718,-0.7708,-0.7697,-0.7625,-0.7624,-0.7623,-0.764,-0.764,-0.764,0,0,0,0,0,0,-0.8027,-0.7978,-0.7968,-0.7935,-0.7905,-0.7862,-0.7848,-0.7835,-0.7805,-0.7804,-0.7773,-0.7764,-0.7732,-0.7711,-0.7721,-0.7668,-0.7666,-0.7663,-0.7682,-0.7682,-0.7682,-0.7687,-0.7705,0,0,0,0,0,-0.8029,-0.8002,-0.796,-0.7935,-0.7921,-0.7887,-0.7869,-0.7852,-0.782,-0.7808,-0.7779,-0.7749,-0.7718,-0.7699,-0.767,-0.7637,-0.7626,-0.7624,-0.7624,-0.7625,-0.7622,-0.7602,-0.76,-0.7619,-0.7619,-0.7619,0,0,-0.8031,-0.8001,-0.7986,-0.7939,-0.7914,-0.7887,-0.7877,-0.7848,-0.7827,-0.7803,-0.7768,-0.7747,-0.7711,-0.7677,-0.766,-0.7658,-0.7615,-0.7623,-0.7624,-0.7621,-0.7601,-0.7599,-0.7598,-0.7618,-0.7618,-0.7618,0,0,-0.8022,-0.7997,-0.7972,-0.7948,-0.791,-0.7888,-0.7882,-0.7841,-0.7825,-0.779,-0.7771,-0.7746,-0.7695,-0.767,-0.765,-0.7631,-0.7617,-0.7622,-0.7622,-0.7603,-0.7601,-0.76,-0.7591,-0.7589,-0.762,-0.762,-0.762,0,-0.803,-0.7988,-0.7962,-0.7934,-0.7913,-0.789,-0.7865,-0.7842,-0.7797,-0.7783,-0.7782,-0.7717,-0.7691,-0.765,-0.7645,-0.7631,-0.7622,-0.7626,-0.7604,-0.7602,-0.76,-0.7592,-0.7589,-0.7621,-0.7621,-0.7621,-0.762,0,-0.7999,-0.797,-0.7955,-0.7912,-0.7889,-0.7863,-0.7832,-0.7813,-0.7797,-0.7775,-0.7739,-0.7707,-0.767,-0.7659,-0.7644,-0.7616,-0.7616,-0.761,-0.7607,-0.7599,-0.7591,-0.7588,-0.7622,-0.7621,-0.7621,-0.7621,0,0,-0.8002,-0.7945,-0.7939,-0.7919,-0.7876,-0.7853,-0.7825,-0.7789,-0.7772,-0.7742,-0.7717,-0.7675,-0.7668,-0.7646,-0.7628,-0.7611,-0.7597,-0.7607,-0.7605,-0.7605,-0.7562,-0.7567,-0.7563,-0.7588,-0.7587,-0.7587,-0.7565,0,-0.7986,-0.7936,-0.7911,-0.7871,-0.7843,-0.7821,-0.7797,-0.7768,-0.7746,-0.7719,-0.7695,-0.7665,-0.7659,-0.7646,-0.7629,-0.7602,-0.7587,-0.7604,-0.7564,-0.7563,-0.7572,-0.7559,-0.7564,-0.7545,-0.7562,-0.7561,-0.7561,0,-0.7961,-0.793,-0.7888,-0.7847,-0.7834,-0.7813,-0.7777,-0.7752,-0.7718,-0.7704,-0.7679,-0.7661,-0.763,-0.7631,-0.7588,-0.7599,-0.7582,-0.7566,-0.7565,-0.7559,-0.756,-0.7552,-0.7538,-0.7535,-0.7556,-0.7556,-0.7556,0,-0.7966,-0.7915,-0.7882,-0.7865,-0.7817,-0.7803,-0.7782,-0.7748,-0.7728,-0.7697,-0.7683,-0.7649,-0.763,-0.7603,-0.7577,-0.758,-0.7536,-0.7534,-0.7522,-0.7522,-0.7513,-0.7513,-0.7494,-0.7503,-0.7504,-0.7504,-0.7504,0,-0.7951,-0.7925,-0.7884,-0.7864,-0.7834,-0.7806,-0.7777,-0.7755,-0.7725,-0.7699,-0.7678,-0.7655,-0.7622,-0.7594,-0.7573,-0.754,-0.7532,-0.7518,-0.7513,-0.7519,-0.7521,-0.7507,-0.7507,-0.7503,-0.7503,-0.7503,-0.7503,0,-0.7951,-0.7923,-0.7885,-0.7843,-0.7831,-0.7811,-0.7775,-0.7754,-0.7731,-0.77,-0.769,-0.7655,-0.7621,-0.7592,-0.7548,-0.7533,-0.7499,-0.7493,-0.751,-0.7507,-0.7495,-0.7496,-0.7465,-0.7459,-0.7474,-0.7474,-0.7474,0,-0.7942,-0.7922,-0.7877,-0.7859,-0.7838,-0.7809,-0.7788,-0.7759,-0.7737,-0.7697,-0.7681,-0.7646,-0.7616,-0.7563,-0.7532,-0.7498,-0.749,-0.7482,-0.7485,-0.7492,-0.7488,-0.7489,-0.7487,-0.7481,-0.7481,-0.7481,-0.7481,0,-0.793,-0.7916,-0.7886,-0.7851,-0.7827,-0.7798,-0.7768,-0.7754,-0.772,-0.7697,-0.7662,-0.7639,-0.7593,-0.7558,-0.752,-0.7499,-0.7484,-0.7481,-0.7476,-0.7482,-0.7492,-0.7485,-0.7508,-0.7481,-0.7481,-0.7481,-0.7481,-0.7481,-0.7924,-0.7905,-0.787,-0.7837,-0.7812,-0.7784,-0.7762,-0.7737,-0.7707,-0.7668,-0.7653,-0.7617,-0.7582,-0.753,-0.7508,-0.7479,-0.7477,-0.747,-0.7468,-0.7467,-0.7467,-0.7498,-0.7473,-0.7473,-0.7472,-0.7472,-0.7472,0,-0.7909,-0.7885,-0.7856,-0.7815,-0.7789,-0.7778,-0.7744,-0.7723,-0.7692,-0.7661,-0.7632,-0.7591,-0.7557,-0.7524,-0.7488,-0.7471,-0.7463,-0.7462,-0.7462,-0.7457,-0.7472,-0.7479,-0.7469,-0.7469,-0.7469,-0.7469,-0.7469,-0.7469,-0.7898,-0.7864,-0.7846,-0.7799,-0.7776,-0.774,-0.7722,-0.7696,-0.7671,-0.7627,-0.7598,-0.7577,-0.7545,-0.7506,-0.7474,-0.7465,-0.7452,-0.7453,-0.7442,-0.7456,-0.7456,-0.7457,-0.7464,-0.745,-0.745,-0.7429,-0.7429,-0.7429]},{"header":{"parameterUnit":"m.s-1","parameterCategory":1,"la1":30.2991,"la2":30.254,"lo1":-89.0895,"lo2":-89.0444,"dy":0.0017,"dx":0.0017,"nx":28,"ny":28,"refTime":"2025-03-31T03:00:00:Z","depth":0,"parameterNumber":3,"parameterNumberName":"V-component_of_WINDS"},"data":[0,0,0,0,0,0,0,0,0,0,0,0,0,0,0,0,0,0,0,0,0,0,0,0,0,0,0,0,0,0,0,0,0,0,0,0,0,0,0,0,0,0,0,0,0,0,0,0,0,0,0,0,0,0,0,0,0,0,1.6617,1.6617,0,1.6634,1.6634,1.6634,1.6605,1.6604,1.6603,1.6602,1.6619,1.6621,1.6622,0,0,0,0,0,0,0,0,0,0,0,0,0,1.6558,1.656,1.6617,1.6617,1.6617,1.6634,1.6634,1.6634,1.6605,1.6604,1.6603,1.6602,1.6619,1.662,1.6622,0,0,0,0,0,0,0,0,0,0,0,0,0,1.658,1.656,1.6617,1.6605,1.6604,1.6634,1.6634,1.6634,1.6605,1.6604,1.6602,1.6601,1.6618,1.662,1.6622,1.6664,0,0,1.6629,1.6629,0,0,0,0,0,0,0,0,1.6579,1.6583,1.6606,1.6606,1.6605,1.6616,1.662,1.6644,1.6606,1.6605,1.6602,1.66,1.6619,1.6621,1.6627,1.6665,1.6666,1.6629,1.663,1.6631,1.6631,0,0,0,0,0,0,0,1.6578,1.6582,1.6623,1.6607,1.6606,1.6598,1.66,1.6624,1.662,1.6605,1.6603,1.6605,1.6618,1.6626,1.6628,1.6666,1.6629,1.663,1.6632,1.6633,1.674,1.6741,0,0,0,0,0,0,1.6578,1.6581,1.6623,1.6624,1.6588,1.66,1.6602,1.6614,1.662,1.6619,1.6606,1.6604,1.6623,1.6625,1.6628,1.6679,1.6631,1.6633,1.6634,1.6738,1.674,1.6742,0,0,0,0,0,0,1.6577,1.6582,1.6622,1.6602,1.6606,1.6603,1.6616,1.6615,1.6622,1.6621,1.662,1.6615,1.6622,1.6625,1.6656,1.6679,1.6634,1.6636,1.6736,1.6739,1.6741,1.678,0,0,0,0,0,0,1.6575,1.6582,1.6598,1.6602,1.6607,1.665,1.6618,1.6616,1.6626,1.6622,1.6628,1.6628,1.6621,1.6653,1.6658,1.6681,1.6637,1.6734,1.6737,1.674,1.6777,1.6783,1.6789,0,0,0,0,0,1.6573,1.6608,1.6599,1.6604,1.6628,1.6651,1.6654,1.6646,1.6627,1.6644,1.6643,1.6628,1.6675,1.6656,1.6661,1.6686,1.6733,1.6736,1.674,1.6774,1.6782,1.6789,0,0,0,0,0,0,1.6607,1.6609,1.6598,1.6636,1.6644,1.6646,1.6667,1.6654,1.6668,1.6664,1.6652,1.6654,1.6687,1.6689,1.6668,1.6727,1.6701,1.6706,1.6725,1.6733,1.6739,1.6738,1.6639,0,0,0,0,0,1.6618,1.6637,1.6638,1.6671,1.6675,1.667,1.668,1.6673,1.668,1.6683,1.6685,1.6693,1.6709,1.6721,1.6736,1.6776,1.6777,1.6795,1.6801,1.6806,1.6811,1.6833,1.6841,1.6754,1.6753,1.6753,0,0,1.6643,1.6646,1.6659,1.6678,1.6683,1.6703,1.6673,1.6696,1.6711,1.6687,1.6716,1.6717,1.6725,1.6761,1.6776,1.6763,1.6835,1.6811,1.6815,1.6817,1.6838,1.6846,1.6853,1.6756,1.6756,1.6755,0,0,1.6699,1.6703,1.6731,1.6737,1.6745,1.6741,1.6748,1.6752,1.6752,1.6781,1.6764,1.678,1.6809,1.6816,1.6823,1.688,1.6866,1.6885,1.6918,1.694,1.6947,1.6953,1.6974,1.6982,1.6889,1.6889,1.6889,0,1.6728,1.6758,1.6747,1.6771,1.678,1.6758,1.6787,1.6793,1.6806,1.6812,1.6797,1.6833,1.6836,1.6873,1.6887,1.6893,1.6901,1.6885,1.6947,1.6953,1.6958,1.6979,1.6986,1.6892,1.6891,1.6891,1.6891,0,1.6795,1.6816,1.6837,1.6851,1.6861,1.6887,1.688,1.6892,1.6883,1.6881,1.6911,1.6914,1.693,1.6937,1.6929,1.6973,1.6965,1.6948,1.6923,1.6969,1.6988,1.6996,1.6895,1.6894,1.6893,1.6893,0,0,1.6874,1.688,1.6888,1.6894,1.6901,1.6917,1.6941,1.6956,1.6968,1.6976,1.6997,1.7021,1.7006,1.7014,1.7005,1.7024,1.707,1.7005,1.7005,1.7018,1.712,1.7134,1.7144,1.706,1.7061,1.7063,1.712,0,1.6931,1.6974,1.6964,1.7007,1.7026,1.7005,1.7027,1.7033,1.7031,1.7047,1.7044,1.7063,1.704,1.7045,1.7062,1.7061,1.7091,1.7056,1.708,1.7081,1.7081,1.7153,1.7168,1.7223,1.7127,1.7128,1.7129,0,1.7003,1.7015,1.706,1.7063,1.7071,1.7091,1.7104,1.7119,1.7125,1.7122,1.7131,1.7119,1.7143,1.7115,1.7148,1.7125,1.7134,1.7135,1.7136,1.714,1.711,1.716,1.7239,1.7248,1.7141,1.714,1.7139,0,1.7059,1.7085,1.7116,1.7121,1.7125,1.714,1.7142,1.7147,1.7157,1.7168,1.7174,1.7188,1.7196,1.7206,1.7198,1.7178,1.7233,1.7204,1.7232,1.7233,1.7247,1.7246,1.733,1.7249,1.7249,1.7249,1.7249,0,1.7124,1.7153,1.7141,1.716,1.7191,1.7179,1.721,1.7209,1.7214,1.7232,1.7214,1.7232,1.7219,1.7235,1.7228,1.7258,1.7261,1.726,1.7258,1.7263,1.7263,1.727,1.7267,1.7251,1.725,1.725,1.725,0,1.7193,1.7186,1.7218,1.7219,1.722,1.7243,1.7244,1.7261,1.7257,1.728,1.7285,1.7279,1.7297,1.7289,1.7308,1.7304,1.7342,1.7334,1.734,1.7339,1.7368,1.7366,1.7461,1.7473,1.7382,1.7383,1.7384,0,1.7236,1.7258,1.7261,1.7272,1.7276,1.7294,1.7303,1.7291,1.7302,1.731,1.7327,1.7343,1.7357,1.7386,1.7384,1.7398,1.7392,1.7424,1.7394,1.7398,1.7394,1.7394,1.7397,1.7431,1.7432,1.7433,1.7433,0,1.7315,1.731,1.7325,1.7339,1.7351,1.7361,1.7369,1.7379,1.7367,1.738,1.7399,1.7409,1.7428,1.7445,1.7457,1.7459,1.7445,1.7442,1.745,1.7456,1.746,1.746,1.7359,1.7441,1.744,1.744,1.7439,1.7439,1.7373,1.7392,1.7397,1.7414,1.7419,1.7427,1.7444,1.7441,1.7457,1.7472,1.7463,1.7485,1.7489,1.7505,1.7509,1.7525,1.7513,1.7523,1.7527,1.753,1.7535,1.7455,1.7527,1.7527,1.7527,1.7527,1.7526,0,1.7453,1.7454,1.747,1.7483,1.7496,1.748,1.7488,1.7501,1.752,1.7526,1.7538,1.756,1.7576,1.7573,1.7588,1.7602,1.7596,1.7606,1.7606,1.7607,1.7544,1.7537,1.7611,1.7611,1.7611,1.7611,1.7611,1.7611,1.7496,1.7526,1.7522,1.7554,1.7555,1.7577,1.7583,1.759,1.7595,1.762,1.7633,1.7631,1.7634,1.7648,1.7662,1.7661,1.7668,1.7681,1.7678,1.762,1.7612,1.7604,1.7597,1.7683,1.7683,1.774,1.7741,1.7741]}]]